Regional Weather Roundup
Issued by NWS

Home | Current Version | Previous Version | Text Only | Print | Product List | Glossary Off
Versions: 1 2 3 4 5 6 7 8 9 10 11 12 13 14 15 16 17 18 19 20 21 22 23 24 25 26 27 28 29 30 31 32 33 34 35 36 37 38 39 40 41 42 43 44 45 46 47 48 49 50

000
ASUS45 KSLC 241010
RWRUT

UTAH REGIONAL WEATHER ROUNDUP
NATIONAL WEATHER SERVICE SALT LAKE CITY UT
400 AM MDT THU JUL 24 2014

UTZ001>011-023>025-241100-

NORTHERN UTAH

CITY           SKY/WX    TMP DP  RH WIND       PRES   REMARKS
HILL AFB       PTCLDY    81  46  28 S16       30.01R
LOGAN          NOT AVBL
OGDEN          PTCLDY    81  44  27 S10       29.97R
PROVO AIRPORT  CLOUDY    81  46  30 S13       30.05S THUNDER
SALT LAKE CITY MOCLDY    85  44  23 S14       29.96R
VERNAL         CLOUDY    78  44  29 SW9       30.14R
WENDOVER       CLEAR     82  28  14 NW13G20   30.00S
HEBER CITY     CLOUDY    68  45  42 CALM      30.15R
WEST JORDAN    CLEAR     82  54  36 S9        30.02S

$$

UTZ012>022-026-027-241100-

SOUTHERN UTAH

CITY           SKY/WX    TMP DP  RH WIND       PRES   REMARKS
BRYCE CANYON   MOCLDY    61  44  53 W6        30.38S
CEDAR CITY     MOCLDY    74  32  21 CALM      30.16S
MILFORD        MOCLDY    79  34  19 SW13      30.09S
MOAB/CYNLANDS  CLEAR     82  42  24 SE9       30.10S
PRICE          CLOUDY    70  51  51 N10       30.23S
ST GEORGE      CLOUDY    90  36  14 E10       29.95S
KANAB            N/A     72  41  33 NW5       30.18S

$$

REGIONAL REPORTS     COLORADO/ARIZONA

CITY           SKY/WX    TMP DP  RH WIND       PRES   REMARKS
CRAIG, CO      LGT RAIN  59  49  69 CALM      30.27R
GRAND JUNCTION MOCLDY    84  47  27 S16G28    30.13R
RIFLE          MOCLDY    68  45  43 CALM      30.23R
MONTROSE       PTCLDY    72  51  47 E10       30.28S
CORTEZ         CLEAR     75  50  41 VRB7G18   30.29F
PAGE, AZ       MOCLDY    86  49  27 S7        30.11S
GRAND CANYON   CLOUDY    67  48  50 NE3       30.33S
KINGMAN        CLEAR     82  30  15 SE14      30.02S
FLAGSTAFF      CLOUDY    64  50  60 CALM      30.37F

$$

REGIONAL REPORTS    NEVADA/IDAHO/WYOMING

CITY           SKY/WX    TMP DP  RH WIND       PRES   REMARKS
LAS VEGAS, NV  CLEAR     92  29  10 S12       29.82S
ELY            CLEAR     59  20  22 W7        30.19F
ELKO           CLEAR     57  30  35 W5        30.13F
POCATELLO, ID  CLEAR     71  37  28 SW13      30.03R
BURLEY         CLEAR     67  36  31 SW14      30.02S
EVANSTON, WY   PTCLDY    66  42  41 SW14      30.22S
ROCK SPRINGS   MOCLDY    71  35  26 S7        30.21F

$$



USA.gov is the U.S. government's official web portal to all federal, state and local government web resources and services.